Regional Weather Roundup
Issued by NWS

Home | Current Version | Previous Version | Graphics & Text | Print | Product List | Glossary On
Versions: 1 2 3 4 5 6 7 8 9 10 11 12 13 14 15 16 17 18 19 20 21 22 23 24 25 26 27 28 29 30 31 32 33 34 35 36 37 38 39 40 41 42 43 44 45 46 47 48 49 50
000
ASUS43 KFSD 260910
RWRSD

WEATHER ROUNDUP FOR SOUTH DAKOTA
NATIONAL WEATHER SERVICE SIOUX FALLS SD
400 AM CDT SAT JUL 26 2014

NOTE: "FAIR" INDICATES FEW OR NO CLOUDS BELOW 12,000 FEET WITH NO
SIGNIFICANT WEATHER AND/OR OBSTRUCTIONS TO VISIBILITY.


SDZ001>005-009-010-012>017-261000-
NORTHWEST AND NORTH CENTRAL SOUTH DAKOTA

CITY           SKY/WX    TMP DP  RH WIND       PRES   REMARKS
BUFFALO          N/A     62  42  47 NW23G31   29.86R
FAITH            N/A     60  51  72 W3        29.87R
MOBRIDGE       PTCLDY    67  66  97 S7        29.79S
$$

SDZ012>016-024>037-041>051-057-063-072>074-261000-
SOUTHWEST AND SOUTH CENTRAL SOUTH DAKOTA

CITY           SKY/WX    TMP DP  RH WIND       PRES   REMARKS
RAPID CTY ARPT CLEAR     61  51  70 N10       29.89R
PIERRE         PTCLDY    69  67  93 SE7       29.81S
CUSTER         CLEAR     63  46  54 N8        30.03R
ELLSWORTH AFB  CLEAR     67  50  54 N12       29.90R
PHILIP         CLEAR     65  62  90 NE6       29.83R
PINE RIDGE     CLEAR     62  57  83 CALM      29.85S
WINNER         FAIR      70  66  87 E8        29.81F
$$

SDZ004>011-016>023-039-040-261000-
NORTHEAST SOUTH DAKOTA

CITY           SKY/WX    TMP DP  RH WIND       PRES   REMARKS
ABERDEEN       MOCLDY    58  58 100 E5        29.81F
WATERTOWN      MOCLDY    64  64 100 S5        29.85S FOG
SISSETON         N/A     59  57  93 CALM      29.81S
$$

SDZ017-020-022-023-036>040-048>070-261000-
SOUTHEAST SOUTH DAKOTA

CITY           SKY/WX    TMP DP  RH WIND       PRES   REMARKS
SIOUX FALLS    MOCLDY    72  70  93 NE10      29.83S
HURON          CLOUDY    69  66  90 VRB3      29.82R
CHAMBERLAIN    PTCLDY    69  65  88 SE8       29.83R
MITCHELL       MOCLDY    69  67  93 NE6       29.81F
YANKTON        PTCLDY    70  70 100 SE7       29.79F
$$

ABBREVIATIONS USED IN REMARKS
   TC - TEMPERATURE IN CELSIUS
  WCI - WIND CHILL INDEX
   HX - HEAT INDEX
  VSB - VISIBILITY



USA.gov is the U.S. government's official web portal to all federal, state and local government web resources and services.